RYR1HV LGKR-EPMO

Flight info

Callsign RYR1HV
Flight time 2h 10m
Altitude 38000
Route NIKRO DCT OVVER DCT UNDER DCT ALELU DCT RISTU DCT PARAK/N0442F390 DCT KEKED DCT PODAN DCT MONOV/N0448F380 L621 LIMVI
Aircraft B38M/M-SADE3FGILRWY/SB1

Departure

Time 2026-04-26 11:40
Airport Corfu Ioannis Kapodistrias International Airport (LGKR)

Arrival

Time 2026-04-26 13:50
Airport Warsaw Modlin Airport (EPMO)
Time Latitude Longitude Altitude Speed Heading
2026-04-26 11:14 39.60666 19.91351 20 ft 0 kts 78°
2026-04-26 11:31 39.60662 19.91326 48 ft 4 kts 74°
2026-04-26 11:31 39.60653 19.91293 20 ft 4 kts 67°
2026-04-26 11:32 39.60641 19.91261 22 ft 4 kts 60°
2026-04-26 11:32 39.60626 19.91233 21 ft 4 kts 49°
2026-04-26 11:32 39.60617 19.91220 19 ft 0 kts 41°
2026-04-26 11:36 39.60618 19.91221 19 ft 1 kts 41°
2026-04-26 11:36 39.60644 19.91231 20 ft 8 kts 357°
2026-04-26 11:37 39.60729 19.91209 18 ft 15 kts 349°
2026-04-26 11:37 39.60838 19.91181 18 ft 17 kts 348°
2026-04-26 11:37 39.60962 19.91148 19 ft 19 kts 348°
2026-04-26 11:37 39.61042 19.91126 19 ft 10 kts 348°
2026-04-26 11:38 39.61103 19.91110 19 ft 10 kts 348°
2026-04-26 11:38 39.61160 19.91095 19 ft 6 kts 349°
2026-04-26 11:38 39.61190 19.91086 21 ft 5 kts 338°
2026-04-26 11:38 39.61218 19.91037 17 ft 10 kts 298°
2026-04-26 11:39 39.61211 19.90955 15 ft 8 kts 200°
2026-04-26 11:39 39.61195 19.90955 14 ft 0 kts 169°
2026-04-26 11:39 39.61189 19.90957 14 ft 6 kts 169°
2026-04-26 11:39 39.60867 19.91040 14 ft 90 kts 169°
2026-04-26 11:40 39.60002 19.91264 34 ft 158 kts 169°
2026-04-26 11:40 39.58854 19.91548 642 ft 171 kts 171°
2026-04-26 11:40 39.58054 19.91757 1107 ft 184 kts 167°
2026-04-26 11:40 39.56868 19.92473 1910 ft 198 kts 145°
2026-04-26 11:41 39.55933 19.93933 2329 ft 228 kts 115°
2026-04-26 11:42 39.49693 20.04852 8689 ft 241 kts 79°
2026-04-26 11:43 39.50289 20.06865 9512 ft 239 kts 52°
2026-04-26 11:43 39.51491 20.08332 10299 ft 240 kts 28°
2026-04-26 11:43 39.53048 20.09050 11095 ft 237 kts 11°
2026-04-26 11:43 39.54661 20.09469 11848 ft 242 kts 10°
2026-04-26 11:44 39.56341 20.09869 12548 ft 250 kts
2026-04-26 11:44 39.58123 20.10265 12995 ft 268 kts
2026-04-26 11:44 39.60035 20.10673 13430 ft 286 kts
2026-04-26 11:44 39.62050 20.11092 13966 ft 299 kts
2026-04-26 11:45 39.64099 20.11510 14688 ft 302 kts
2026-04-26 11:45 39.66189 20.11926 15404 ft 306 kts
2026-04-26 11:45 39.68351 20.11914 15843 ft 319 kts 353°
2026-04-26 11:45 39.70623 20.11584 16155 ft 335 kts 353°
2026-04-26 11:46 39.72982 20.11266 16643 ft 343 kts 354°
2026-04-26 11:46 39.75371 20.10958 17363 ft 346 kts 354°
2026-04-26 11:46 39.77752 20.10662 17996 ft 350 kts 354°
2026-04-26 11:46 39.80193 20.10363 18623 ft 353 kts 354°
2026-04-26 11:47 39.82653 20.10064 19185 ft 356 kts 354°
2026-04-26 11:47 39.85130 20.09763 19747 ft 359 kts 354°
2026-04-26 11:47 39.87634 20.09459 20285 ft 363 kts 353°
2026-04-26 11:47 39.90156 20.09152 20833 ft 366 kts 353°
2026-04-26 11:48 39.92679 20.08845 21377 ft 369 kts 353°
2026-04-26 11:48 39.95248 20.08532 21931 ft 372 kts 353°
2026-04-26 11:48 39.97840 20.08216 22455 ft 375 kts 353°
2026-04-26 11:48 40.00452 20.07897 23026 ft 378 kts 353°
2026-04-26 11:49 40.03089 20.07576 23560 ft 382 kts 353°
2026-04-26 11:49 40.05723 20.07254 24010 ft 385 kts 353°
2026-04-26 11:49 40.08407 20.06925 24466 ft 387 kts 353°
2026-04-26 11:49 40.11100 20.06596 24893 ft 390 kts 353°
2026-04-26 11:50 40.13816 20.06264 25304 ft 393 kts 353°
2026-04-26 11:50 40.16553 20.05928 25732 ft 396 kts 352°
2026-04-26 11:50 40.19271 20.05594 26130 ft 398 kts 353°
2026-04-26 11:50 40.22049 20.05251 26506 ft 400 kts 352°
2026-04-26 11:51 40.24832 20.04911 26923 ft 403 kts 352°
2026-04-26 11:51 40.27651 20.04565 27316 ft 406 kts 352°
2026-04-26 11:51 40.30477 20.04216 27746 ft 408 kts 352°
2026-04-26 11:51 40.33287 20.03870 28145 ft 411 kts 352°
2026-04-26 11:52 40.36151 20.03517 28554 ft 414 kts 352°
2026-04-26 11:52 40.39026 20.03162 28959 ft 416 kts 352°
2026-04-26 11:52 40.41921 20.02804 29348 ft 419 kts 352°
2026-04-26 11:52 40.44840 20.02443 29752 ft 421 kts 352°
2026-04-26 11:53 40.47765 20.02082 30133 ft 423 kts 352°
2026-04-26 11:53 40.50692 20.01721 30323 ft 428 kts 352°
2026-04-26 11:53 40.53666 20.01352 30684 ft 428 kts 352°
2026-04-26 11:54 40.59612 20.00619 31291 ft 433 kts 352°
2026-04-26 11:54 40.62663 20.00244 31553 ft 436 kts 352°
2026-04-26 11:54 40.65650 19.99875 31843 ft 437 kts 352°
2026-04-26 11:54 40.68690 19.99499 32173 ft 439 kts 352°
2026-04-26 11:55 40.71751 19.99120 32446 ft 441 kts 352°
2026-04-26 11:55 40.74786 19.98744 32745 ft 443 kts 352°
2026-04-26 11:55 40.77883 19.98361 33022 ft 446 kts 352°
2026-04-26 11:55 40.80982 19.97977 33335 ft 447 kts 352°
2026-04-26 11:56 40.84087 19.97591 33717 ft 446 kts 352°
2026-04-26 11:56 40.87144 19.97212 34140 ft 445 kts 351°
2026-04-26 11:56 40.90223 19.96829 34528 ft 443 kts 351°
2026-04-26 11:56 40.93292 19.96446 34862 ft 442 kts 352°
2026-04-26 11:57 40.96358 19.96064 35166 ft 441 kts 352°
2026-04-26 11:57 40.99424 19.95682 35466 ft 441 kts 352°
2026-04-26 11:57 41.02447 19.95305 35752 ft 441 kts 352°
2026-04-26 11:57 41.05508 19.94924 36046 ft 440 kts 352°
2026-04-26 11:58 41.08580 19.94729 36359 ft 440 kts 354°
2026-04-26 11:58 41.11646 19.94528 36614 ft 440 kts 354°
2026-04-26 11:58 41.14706 19.94317 36886 ft 440 kts 354°
2026-04-26 11:58 41.17731 19.94110 37156 ft 440 kts 354°
2026-04-26 11:59 41.20784 19.93902 37413 ft 439 kts 354°
2026-04-26 11:59 41.23835 19.93694 37670 ft 439 kts 354°
2026-04-26 11:59 41.26883 19.93485 37905 ft 438 kts 354°
2026-04-26 11:59 41.29936 19.93277 38088 ft 439 kts 354°
2026-04-26 12:00 41.32990 19.93068 38083 ft 439 kts 354°
2026-04-26 12:00 41.39035 19.92655 38059 ft 435 kts 354°
2026-04-26 12:01 41.45102 19.92237 38081 ft 437 kts 354°
2026-04-26 12:01 41.51175 19.91821 38061 ft 436 kts 354°
2026-04-26 12:02 41.57215 19.91405 38070 ft 436 kts 354°
2026-04-26 12:02 41.63298 19.90986 38067 ft 437 kts 354°
2026-04-26 12:03 41.69378 19.90565 38068 ft 436 kts 354°
2026-04-26 12:03 41.75401 19.90148 38067 ft 434 kts 354°
2026-04-26 12:04 41.81422 19.89731 38062 ft 434 kts 354°
2026-04-26 12:04 41.87479 19.89310 38073 ft 435 kts 354°
2026-04-26 12:05 41.93516 19.88889 38070 ft 433 kts 354°
2026-04-26 12:05 41.99505 19.88471 38084 ft 434 kts 354°
2026-04-26 12:06 42.05538 19.88050 38056 ft 433 kts 354°
2026-04-26 12:06 42.11525 19.87631 38061 ft 432 kts 354°
2026-04-26 12:07 42.17543 19.87208 38077 ft 431 kts 354°
2026-04-26 12:07 42.23518 19.86789 38047 ft 431 kts 354°
2026-04-26 12:08 42.29528 19.86364 38078 ft 432 kts 354°
2026-04-26 12:08 42.35520 19.85942 38069 ft 430 kts 354°
2026-04-26 12:09 42.41520 19.85518 38072 ft 431 kts 354°
2026-04-26 12:09 42.47471 19.85127 38098 ft 431 kts 358°
2026-04-26 12:10 42.53484 19.85535 38103 ft 431 kts 360°
2026-04-26 12:10 42.59494 19.85947 38068 ft 432 kts
2026-04-26 12:11 42.65472 19.86389 38082 ft 431 kts
2026-04-26 12:11 42.71477 19.86842 38082 ft 431 kts
2026-04-26 12:12 42.77448 19.87293 38074 ft 432 kts
2026-04-26 12:12 42.83463 19.87750 38088 ft 432 kts
2026-04-26 12:13 42.89436 19.88204 38085 ft 432 kts
2026-04-26 12:13 42.95452 19.88663 38092 ft 432 kts
2026-04-26 12:14 43.01456 19.89121 38082 ft 432 kts
2026-04-26 12:14 43.07441 19.89579 38086 ft 432 kts
2026-04-26 12:15 43.13454 19.90039 38110 ft 432 kts
2026-04-26 12:15 43.19471 19.90501 38080 ft 432 kts
2026-04-26 12:16 43.25439 19.90960 38096 ft 432 kts
2026-04-26 12:16 43.31473 19.91425 38094 ft 433 kts
2026-04-26 12:17 43.37490 19.91890 38099 ft 433 kts
2026-04-26 12:17 43.43486 19.92354 38106 ft 433 kts
2026-04-26 12:18 43.49515 19.92822 38106 ft 433 kts
2026-04-26 12:18 43.55537 19.93289 38109 ft 433 kts
2026-04-26 12:19 43.61530 19.93756 38117 ft 433 kts
2026-04-26 12:19 43.67514 19.94222 38103 ft 432 kts
2026-04-26 12:20 43.73530 19.94693 38103 ft 432 kts
2026-04-26 12:20 43.79549 19.95164 38109 ft 432 kts
2026-04-26 12:21 43.85513 19.95632 38106 ft 431 kts
2026-04-26 12:21 43.91515 19.96104 38112 ft 431 kts
2026-04-26 12:22 43.97476 19.96573 38110 ft 431 kts
2026-04-26 12:22 44.03463 19.97047 38109 ft 430 kts
2026-04-26 12:23 44.09450 19.97521 38120 ft 431 kts
2026-04-26 12:23 44.15435 19.97995 38112 ft 430 kts
2026-04-26 12:24 44.21389 19.98468 38109 ft 430 kts
2026-04-26 12:24 44.27380 19.98944 38105 ft 430 kts
2026-04-26 12:25 44.36314 19.99657 38101 ft 430 kts
2026-04-26 12:25 44.42298 20.00136 38109 ft 429 kts
2026-04-26 12:26 44.48252 20.00613 38104 ft 428 kts
2026-04-26 12:26 44.54187 20.01090 38101 ft 429 kts
2026-04-26 12:27 44.60153 20.01569 38112 ft 428 kts
2026-04-26 12:27 44.66110 20.02049 38094 ft 428 kts
2026-04-26 12:28 44.71075 20.02450 38101 ft 429 kts
2026-04-26 12:28 44.77016 20.02848 38104 ft 429 kts
2026-04-26 12:29 44.82981 20.03109 38101 ft 428 kts 360°
2026-04-26 12:30 44.91879 20.03518 38119 ft 428 kts 360°
2026-04-26 12:30 44.97841 20.03794 38107 ft 427 kts 360°
2026-04-26 12:31 45.06773 20.04211 38073 ft 428 kts
2026-04-26 12:31 45.12702 20.04488 38115 ft 427 kts
2026-04-26 12:32 45.18658 20.04767 38114 ft 427 kts 359°
2026-04-26 12:33 45.27567 20.05186 38118 ft 427 kts 359°
2026-04-26 12:33 45.33500 20.05466 38088 ft 427 kts
2026-04-26 12:34 45.39460 20.05748 38078 ft 428 kts 359°
2026-04-26 12:34 45.45370 20.06027 38062 ft 427 kts 359°
2026-04-26 12:35 45.51308 20.06308 38099 ft 426 kts 359°
2026-04-26 12:35 45.57251 20.06591 38113 ft 427 kts 359°
2026-04-26 12:36 45.63153 20.06871 38092 ft 428 kts 359°
2026-04-26 12:36 45.69131 20.07156 38078 ft 428 kts 359°
2026-04-26 12:37 45.75099 20.07441 38099 ft 429 kts 359°
2026-04-26 12:37 45.81074 20.07728 38117 ft 428 kts
2026-04-26 12:38 45.86984 20.08011 38070 ft 426 kts 359°
2026-04-26 12:38 45.92940 20.08297 38104 ft 429 kts 360°
2026-04-26 12:39 45.98902 20.08585 38087 ft 428 kts
2026-04-26 12:39 46.04875 20.08873 38101 ft 426 kts 360°
2026-04-26 12:40 46.10737 20.09156 38092 ft 424 kts 360°
2026-04-26 12:40 46.16632 20.09795 38082 ft 427 kts 13°
2026-04-26 12:41 46.22298 20.12513 38128 ft 429 kts 14°
2026-04-26 12:41 46.27992 20.15106 38063 ft 427 kts 15°
2026-04-26 12:42 46.33592 20.17787 38086 ft 428 kts 15°
2026-04-26 12:42 46.39254 20.20548 38074 ft 428 kts 16°
2026-04-26 12:43 46.44910 20.23314 38069 ft 429 kts 15°
2026-04-26 12:43 46.50544 20.26074 38070 ft 429 kts 15°
2026-04-26 12:44 46.56211 20.28858 38069 ft 429 kts 15°
2026-04-26 12:44 46.61842 20.31630 38083 ft 430 kts 15°
2026-04-26 12:45 46.67552 20.34446 38077 ft 434 kts 15°
2026-04-26 12:45 46.73283 20.37279 38066 ft 434 kts 15°
2026-04-26 12:46 46.78974 20.40100 38067 ft 434 kts 15°
2026-04-26 12:46 46.84694 20.42942 38068 ft 432 kts 14°
2026-04-26 12:47 46.90355 20.45758 38067 ft 431 kts 14°
2026-04-26 12:47 46.96054 20.48601 38061 ft 431 kts 14°
2026-04-26 12:48 47.01723 20.51436 38058 ft 431 kts 15°
2026-04-26 12:48 47.07412 20.54287 38063 ft 432 kts 15°
2026-04-26 12:49 47.13072 20.57129 38085 ft 432 kts 15°
2026-04-26 12:49 47.18768 20.59997 38076 ft 432 kts 15°
2026-04-26 12:50 47.24431 20.62857 38078 ft 424 kts 14°
2026-04-26 12:50 47.29961 20.65650 38061 ft 422 kts 14°
2026-04-26 12:51 47.35535 20.68475 38059 ft 422 kts 14°
2026-04-26 12:51 47.41066 20.71285 38119 ft 422 kts 14°
2026-04-26 12:52 47.46567 20.74087 38084 ft 414 kts 13°
2026-04-26 12:52 47.52023 20.76868 38073 ft 414 kts 13°
2026-04-26 12:53 47.57451 20.79643 38071 ft 414 kts 13°
2026-04-26 12:53 47.62911 20.82443 38100 ft 414 kts 13°
2026-04-26 12:54 47.68358 20.85239 38079 ft 414 kts 13°
2026-04-26 12:54 47.73807 20.88043 38078 ft 414 kts 13°
2026-04-26 12:55 47.79225 20.90838 38082 ft 414 kts 13°
2026-04-26 12:55 47.84694 20.93666 38082 ft 416 kts 12°
2026-04-26 12:56 47.90145 20.96489 38093 ft 417 kts 13°
2026-04-26 12:56 47.95644 20.99345 38099 ft 417 kts 13°
2026-04-26 12:57 48.01099 21.02185 38096 ft 417 kts 13°
2026-04-26 12:57 48.06570 21.05038 38107 ft 419 kts 12°
2026-04-26 12:58 48.14845 21.09368 38098 ft 419 kts 12°
2026-04-26 12:58 48.20355 21.12259 38098 ft 419 kts 12°
2026-04-26 12:59 48.25834 21.15139 38109 ft 419 kts 12°
2026-04-26 12:59 48.31349 21.18045 38112 ft 419 kts 12°
2026-04-26 13:00 48.36830 21.20938 38120 ft 419 kts 12°
2026-04-26 13:00 48.42303 21.23836 38116 ft 419 kts 12°
2026-04-26 13:01 48.47798 21.26751 38111 ft 416 kts 11°
2026-04-26 13:01 48.53245 21.29364 38094 ft 405 kts
2026-04-26 13:02 48.56022 21.29798 38196 ft 401 kts 359°
2026-04-26 13:02 48.58820 21.30234 38125 ft 403 kts 359°
2026-04-26 13:02 48.64380 21.31129 38112 ft 402 kts 359°
2026-04-26 13:03 48.69936 21.32038 38128 ft 403 kts 359°
2026-04-26 13:03 48.75527 21.32957 38137 ft 404 kts 359°
2026-04-26 13:04 48.81117 21.33878 38131 ft 403 kts 359°
2026-04-26 13:04 48.86673 21.34796 38132 ft 404 kts 359°
2026-04-26 13:05 48.92258 21.35721 38127 ft 402 kts 359°
2026-04-26 13:05 48.97841 21.36647 38130 ft 403 kts 359°
2026-04-26 13:06 49.03385 21.37570 38126 ft 403 kts 359°
2026-04-26 13:06 49.08966 21.38500 38129 ft 403 kts 359°
2026-04-26 13:07 49.14522 21.39428 38126 ft 403 kts 359°
2026-04-26 13:07 49.20104 21.40363 38130 ft 403 kts 359°
2026-04-26 13:08 49.25693 21.41301 38125 ft 403 kts 359°
2026-04-26 13:08 49.31232 21.42233 38122 ft 403 kts 359°
2026-04-26 13:09 49.36799 21.43172 38116 ft 400 kts 359°
2026-04-26 13:09 49.42335 21.43985 38132 ft 397 kts 356°
2026-04-26 13:10 49.47843 21.44502 38116 ft 399 kts 356°
2026-04-26 13:10 49.53387 21.45054 38118 ft 399 kts 356°
2026-04-26 13:11 49.58926 21.45616 38133 ft 396 kts 356°
2026-04-26 13:11 49.64387 21.46171 38123 ft 395 kts 356°
2026-04-26 13:12 49.69852 21.46729 38122 ft 395 kts 356°
2026-04-26 13:12 49.75340 21.47289 38124 ft 395 kts 356°
2026-04-26 13:13 49.80839 21.47854 38177 ft 394 kts 356°
2026-04-26 13:13 49.86257 21.48411 38128 ft 390 kts 356°
2026-04-26 13:14 49.90781 21.48876 38132 ft 391 kts 356°
2026-04-26 13:14 49.96222 21.49437 38120 ft 391 kts 356°
2026-04-26 13:15 50.01637 21.49997 38125 ft 391 kts 356°
2026-04-26 13:15 50.07071 21.50561 38126 ft 389 kts 356°
2026-04-26 13:16 50.12438 21.51118 38128 ft 389 kts 356°
2026-04-26 13:16 50.17865 21.51683 38124 ft 390 kts 356°
2026-04-26 13:17 50.25992 21.52532 38139 ft 390 kts 356°
2026-04-26 13:18 50.34064 21.53378 38132 ft 387 kts 356°
2026-04-26 13:19 50.48143 21.54859 38136 ft 388 kts 356°
2026-04-26 13:20 50.53139 21.55387 38162 ft 389 kts 356°
2026-04-26 13:20 50.58535 21.55959 38137 ft 388 kts 356°
2026-04-26 13:21 50.63819 21.56523 37843 ft 373 kts 356°
2026-04-26 13:21 50.65523 21.56705 37710 ft 365 kts 355°
2026-04-26 13:21 50.68832 21.57059 37563 ft 347 kts 355°
2026-04-26 13:21 50.71272 21.57315 37247 ft 355 kts 355°
2026-04-26 13:22 50.73733 21.57574 36724 ft 361 kts 355°
2026-04-26 13:22 50.76237 21.57843 36232 ft 358 kts 355°
2026-04-26 13:22 50.78720 21.58109 35735 ft 355 kts 355°
2026-04-26 13:22 50.81177 21.58373 35225 ft 352 kts 355°
2026-04-26 13:23 50.83613 21.58634 34798 ft 348 kts 355°
2026-04-26 13:23 50.86017 21.58893 34377 ft 344 kts 354°
2026-04-26 13:23 50.88396 21.59148 33919 ft 340 kts 354°
2026-04-26 13:23 50.90723 21.59398 33441 ft 337 kts 354°
2026-04-26 13:24 50.93045 21.59648 33007 ft 332 kts 354°
2026-04-26 13:24 50.95333 21.59895 32610 ft 327 kts 354°
2026-04-26 13:24 50.97587 21.60138 32222 ft 322 kts 354°
2026-04-26 13:24 50.99807 21.60377 31914 ft 317 kts 354°
2026-04-26 13:25 51.02005 21.60614 31497 ft 313 kts 354°
2026-04-26 13:25 51.04167 21.60848 31102 ft 309 kts 354°
2026-04-26 13:25 51.05581 21.61001 30865 ft 306 kts 354°
2026-04-26 13:26 51.12573 21.61759 29643 ft 290 kts 353°
2026-04-26 13:26 51.14577 21.61977 29303 ft 285 kts 353°
2026-04-26 13:26 51.16511 21.62187 28986 ft 279 kts 353°
2026-04-26 13:27 51.18438 21.62397 28674 ft 274 kts 353°
2026-04-26 13:27 51.20321 21.62602 28420 ft 267 kts 353°
2026-04-26 13:27 51.22197 21.62803 28208 ft 277 kts 353°
2026-04-26 13:27 51.24183 21.63017 28028 ft 293 kts 354°
2026-04-26 13:28 51.26244 21.63240 27767 ft 308 kts 355°
2026-04-26 13:28 51.28448 21.63480 27497 ft 324 kts 355°
2026-04-26 13:28 51.30756 21.63736 27183 ft 337 kts 356°
2026-04-26 13:28 51.33075 21.63712 26210 ft 328 kts 346°
2026-04-26 13:29 51.35230 21.62829 25387 ft 321 kts 336°
2026-04-26 13:29 51.36633 21.61944 24848 ft 319 kts 336°
2026-04-26 13:29 51.39377 21.60283 23836 ft 316 kts 338°
2026-04-26 13:29 51.41440 21.59066 22968 ft 314 kts 338°
2026-04-26 13:30 51.43479 21.57880 22069 ft 309 kts 338°
2026-04-26 13:30 51.45483 21.56726 21268 ft 303 kts 339°
2026-04-26 13:30 51.47456 21.55595 20519 ft 299 kts 339°
2026-04-26 13:30 51.49416 21.54473 19950 ft 299 kts 339°
2026-04-26 13:31 51.51375 21.53353 19450 ft 297 kts 339°
2026-04-26 13:31 51.53292 21.52256 19002 ft 295 kts 339°
2026-04-26 13:31 51.55217 21.51153 18566 ft 292 kts 339°
2026-04-26 13:31 51.57117 21.50063 18116 ft 288 kts 339°
2026-04-26 13:32 51.59008 21.48977 17679 ft 285 kts 339°
2026-04-26 13:32 51.60861 21.47911 17282 ft 280 kts 339°
2026-04-26 13:32 51.62660 21.46876 16908 ft 276 kts 340°
2026-04-26 13:32 51.64457 21.45841 16543 ft 272 kts 340°
2026-04-26 13:33 51.66243 21.44812 16185 ft 274 kts 340°
2026-04-26 13:33 51.68062 21.43765 15804 ft 279 kts 340°
2026-04-26 13:33 51.69913 21.42699 15466 ft 283 kts 340°
2026-04-26 13:33 51.71746 21.41642 15106 ft 283 kts 340°
2026-04-26 13:34 51.73605 21.40568 14749 ft 283 kts 340°
2026-04-26 13:34 51.75462 21.39495 14400 ft 283 kts 340°
2026-04-26 13:34 51.77315 21.38423 14073 ft 282 kts 340°
2026-04-26 13:34 51.78541 21.37713 13823 ft 282 kts 340°
2026-04-26 13:35 51.81018 21.36278 13244 ft 282 kts 340°
2026-04-26 13:35 51.82851 21.35214 12897 ft 284 kts 340°
2026-04-26 13:35 51.84716 21.34131 12545 ft 284 kts 340°
2026-04-26 13:35 51.86578 21.33049 12202 ft 285 kts 340°
2026-04-26 13:36 51.88447 21.31963 11850 ft 285 kts 340°
2026-04-26 13:36 51.90318 21.30873 11494 ft 285 kts 340°
2026-04-26 13:36 51.92183 21.29786 11218 ft 282 kts 340°
2026-04-26 13:36 51.93997 21.28727 11084 ft 271 kts 340°
2026-04-26 13:37 51.95719 21.27719 10953 ft 261 kts 340°
2026-04-26 13:37 51.97402 21.26734 10814 ft 251 kts 340°
2026-04-26 13:37 51.99014 21.25790 10690 ft 242 kts 339°
2026-04-26 13:37 52.00566 21.24881 10567 ft 232 kts 339°
2026-04-26 13:38 52.02058 21.24006 10444 ft 224 kts 339°
2026-04-26 13:38 52.03496 21.23163 10347 ft 216 kts 339°
2026-04-26 13:38 52.04938 21.22317 10248 ft 225 kts 339°
2026-04-26 13:38 52.06419 21.21449 10054 ft 232 kts 339°
2026-04-26 13:39 52.07956 21.20547 9762 ft 231 kts 339°
2026-04-26 13:39 52.09441 21.19676 9492 ft 228 kts 339°
2026-04-26 13:39 52.10921 21.18806 9233 ft 224 kts 339°
2026-04-26 13:39 52.12372 21.17952 8978 ft 219 kts 339°
2026-04-26 13:40 52.13797 21.17113 8734 ft 215 kts 339°
2026-04-26 13:40 52.15202 21.16286 8505 ft 216 kts 339°
2026-04-26 13:40 52.16641 21.15438 8274 ft 223 kts 339°
2026-04-26 13:40 52.18099 21.14578 8034 ft 226 kts 339°
2026-04-26 13:41 52.19580 21.13704 7761 ft 227 kts 339°
2026-04-26 13:41 52.21071 21.12824 7524 ft 228 kts 339°
2026-04-26 13:41 52.22568 21.11939 7276 ft 228 kts 339°
2026-04-26 13:41 52.24048 21.11064 7022 ft 229 kts 339°
2026-04-26 13:42 52.25547 21.10178 6710 ft 229 kts 339°
2026-04-26 13:42 52.27043 21.09291 6397 ft 228 kts 340°
2026-04-26 13:42 52.28535 21.08407 6106 ft 226 kts 340°
2026-04-26 13:42 52.30009 21.07533 5834 ft 224 kts 340°
2026-04-26 13:43 52.30976 21.06960 5650 ft 222 kts 340°
2026-04-26 13:43 52.32434 21.06093 5402 ft 223 kts 340°
2026-04-26 13:43 52.34376 21.04940 5086 ft 224 kts 340°
2026-04-26 13:43 52.35844 21.04067 4843 ft 224 kts 340°
2026-04-26 13:44 52.36815 21.03490 4672 ft 222 kts 339°
2026-04-26 13:44 52.38267 21.02626 4428 ft 220 kts 339°
2026-04-26 13:44 52.40173 21.01491 4275 ft 220 kts 339°
2026-04-26 13:44 52.41147 21.00909 4183 ft 219 kts 339°
2026-04-26 13:45 52.42547 21.00074 4081 ft 210 kts 339°
2026-04-26 13:45 52.43898 20.99268 3983 ft 203 kts 339°
2026-04-26 13:45 52.45209 20.98484 3881 ft 199 kts 339°
2026-04-26 13:45 52.46482 20.97675 3741 ft 198 kts 332°
2026-04-26 13:46 52.47433 20.96123 3622 ft 195 kts 301°
2026-04-26 13:46 52.47718 20.93960 3477 ft 198 kts 275°
2026-04-26 13:46 52.47564 20.91737 3343 ft 193 kts 271°
2026-04-26 13:46 52.47383 20.89597 3198 ft 186 kts 271°
2026-04-26 13:47 52.47200 20.87533 3043 ft 179 kts 271°
2026-04-26 13:47 52.47022 20.85532 3007 ft 171 kts 272°
2026-04-26 13:47 52.46854 20.83630 2754 ft 168 kts 272°
2026-04-26 13:47 52.46686 20.81741 2441 ft 171 kts 271°
2026-04-26 13:48 52.46510 20.79807 2121 ft 172 kts 271°
2026-04-26 13:48 52.46332 20.77917 1861 ft 159 kts 272°
2026-04-26 13:48 52.46163 20.76213 1623 ft 143 kts 272°
2026-04-26 13:48 52.46015 20.74669 1406 ft 133 kts 274°
2026-04-26 13:49 52.45887 20.73182 1182 ft 129 kts 273°
2026-04-26 13:49 52.45737 20.71731 980 ft 131 kts 269°
2026-04-26 13:49 52.45591 20.70225 774 ft 130 kts 272°
2026-04-26 13:49 52.45456 20.68797 580 ft 123 kts 272°
2026-04-26 13:50 52.45332 20.67445 421 ft 119 kts 271°
2026-04-26 13:50 52.45214 20.66143 340 ft 106 kts 261°
2026-04-26 13:50 52.45130 20.65278 342 ft 51 kts 260°
2026-04-26 13:50 52.45090 20.64840 340 ft 36 kts 261°
2026-04-26 13:51 52.45059 20.64511 339 ft 18 kts 261°
2026-04-26 13:51 52.45008 20.64391 346 ft 12 kts 192°
2026-04-26 13:51 52.44914 20.64383 338 ft 12 kts 182°
2026-04-26 13:51 52.44822 20.64377 340 ft 15 kts 182°
2026-04-26 13:52 52.44739 20.64372 338 ft 10 kts 177°
2026-04-26 13:52 52.44715 20.64462 340 ft 9 kts 82°
2026-04-26 13:52 52.44726 20.64580 340 ft 12 kts 81°
2026-04-26 13:52 52.44741 20.64725 338 ft 12 kts 81°
2026-04-26 13:53 52.44755 20.64874 338 ft 15 kts 81°
2026-04-26 13:53 52.44768 20.65017 340 ft 8 kts 89°
2026-04-26 13:53 52.44746 20.65037 336 ft 2 kts 200°
2026-04-26 13:53 52.44733 20.65027 338 ft 3 kts 205°
2026-04-26 13:54 52.44722 20.65018 339 ft 0 kts 206°